Regional Weather Roundup
Issued by NWS Charleston, WV

Home | Current Version | Previous Version | Graphics & Text | Print | Product List | Glossary On
Versions: 1 2 3 4 5 6 7 8 9 10 11 12 13 14 15 16 17 18 19 20 21 22 23 24 25 26 27 28 29 30 31 32 33 34 35 36 37 38 39 40 41 42 43 44 45 46 47 48 49 50
000
ASUS41 KRLX 272110
RWRRLX
West Virginia Regional Weather Roundup
National Weather Service Charleston WV
500 PM EDT FRI MAR 27 2015

Note: "fair" indicates few or no clouds below 12,000 feet with no
significant weather and/or obstructions to visibility.

WVZ003-272200-
Northern Panhandle of West Virginia

CITY           SKY/WX    TMP DP  RH WIND       PRES   REMARKS
WHEELING       CLOUDY    30  21  69 NW13G22   29.88R
$$

WVZ009-272200-
Northwest West Virginia

CITY           SKY/WX    TMP DP  RH WIND       PRES   REMARKS
PARKERSBURG    CLOUDY    37  20  50 NW10G20   29.93R
$$

WVZ006-272200-
Western West Virginia

CITY           SKY/WX    TMP DP  RH WIND       PRES   REMARKS
HUNTINGTON     CLOUDY    40  23  50 NW16G22   29.92R
$$

WVZ015-272200-
West Central West Virginia

CITY           SKY/WX    TMP DP  RH WIND       PRES   REMARKS
CHARLESTON     PTSUNNY   40  21  46 NW17G25   29.87R
$$

WVZ022-031-272200-
North Central West Virginia

CITY           SKY/WX    TMP DP  RH WIND       PRES   REMARKS
CLARKSBURG     CLOUDY    37  24  59 W10       29.84R
MORGANTOWN     CLOUDY    37  23  56 NW7       29.84R
$$

WVZ025-035-042-045-272200-
Southern West Virginia

CITY           SKY/WX    TMP DP  RH WIND       PRES   REMARKS
BECKLEY        PTSUNNY   39  21  48 NW15      29.77S
LOGAN          CLOUDY    43  21  42 W6G14     29.80S
BLUEFIELD      SUNNY     40  21  46 NW14      29.77R
LEWISBURG      MOSUNNY   45  21  38 N13G20    29.75S
$$

WVZ047-272200-
Northern Mountains of West Virginia

CITY           SKY/WX    TMP DP  RH WIND       PRES   REMARKS
ELKINS         CLOUDY    35  23  61 W9        29.80S
$$

WVZ052-272200-
Eastern Panhandle of West Virginia

CITY           SKY/WX    TMP DP  RH WIND       PRES   REMARKS
MARTINSBURG    CLOUDY    48  25  40 N12       29.77R
PETERSBURG     CLOUDY    43  23  45 NW12      29.80R
$$



USA.gov is the U.S. government's official web portal to all federal, state and local government web resources and services.